Location: Drocourt
(49.0571°N, 1.7669°E)
Time: 15:29:37
(UTC+00:00)

Vanguard 2 Rocket - Pass Details

Date: 16 April 2024
Orbit: 556 x 3304 km, 32.9° (Epoch: 22 May)

Event Time Altitude Azimuth Distance (km) Brightness Sun altitude
Rises 00:41:08 0° 252° (WSW) 7,182 11.2 -29.8°
Reaches altitude 10° 00:46:11 10° 247° (WSW) 6,246 10.8 -29.5°
Enters shadow 00:51:40 22° 239° (WSW) 5,268 10.3 -29.3°
Exits shadow 00:57:31 36° 223° (SW) 4,361 9.8 -29.0°
Maximum altitude 01:04:27 46° 183° (S) 3,708 9.4 -28.6°
Drops below altitude 10° 01:18:24 10° 118° (ESE) 4,863 10.5 -27.8°
Sets 01:21:46 0° 112° (ESE) 5,540 11.0 -27.5°
